Terug naar catalogus

STARLINK-38104

ActiefCommunicatieSSO
NORAD 100185·PAYLOAD·🇺🇸 United States

Gelanceerd Aug 1, 2026 vanaf Vandenberg Space Force Base

Loading…

Volgende Passages (komende 24 uur)

TLE

VersSource: Space-Track

Epoch: Sep 14, 2026, 12:31 UTC

1 A0185U 26175G   26257.52172703  .00262320  00000-0  16991-2 0  9997
2 A0185  97.2820  99.6376 0001803 115.3338 244.8114 15.75284479  8239

Volg STARLINK-38104 in realtime met AllMySat

Download on the App Store